| time (UTC) | temp F | wind direction | speed MPH | gust MPH | rain 1hr in | rain 24hr in | rain mn in | humidity % | barometer mb |
| 20260504042041 | 37 | 0 | 0.0 | 1.0 | 0.00 | 0.00 | 0.00 | 84 | 1014.7 |
| 20260504041550 | 37 | 0 | 0.0 | 3.0 | 0.00 | 0.00 | 0.00 | 84 | 1014.6 |
| 20260504041041 | 37 | 0 | 0.0 | 3.0 | 0.00 | 0.00 | 0.00 | 84 | 1014.6 |
| 20260504040541 | 37 | 266 | 2.0 | 3.0 | 0.00 | 0.00 | 0.00 | 84 | 1014.7 |
| 20260504040053 | 38 | 266 | 0.0 | 2.0 | 0.00 | 0.00 | 0.00 | 84 | 1014.8 |
| 20260504035541 | 38 | 266 | 1.0 | 3.0 | 0.00 | 0.00 | 0.00 | 84 | 1014.9 |
| 20260504035040 | 37 | 266 | 1.0 | 3.0 | 0.00 | 0.00 | 0.00 | 83 | 1014.7 |
| 20260504034551 | 37 | 264 | 0.0 | 0.0 | 0.00 | 0.00 | 0.00 | 84 | 1014.7 |
| 20260504034041 | 37 | 0 | 0.0 | 0.0 | 0.00 | 0.00 | 0.00 | 83 | 1014.7 |
| 20260504033538 | 37 | 0 | 0.0 | 0.0 | 0.00 | 0.00 | 0.00 | 82 | 1014.7 |
| 20260504033056 | 38 | 0 | 0.0 | 0.0 | 0.00 | 0.00 | 0.00 | 82 | 1014.7 |
| 20260504032538 | 38 | 0 | 0.0 | 0.0 | 0.00 | 0.00 | 0.00 | 81 | 1014.6 |
| 20260504032042 | 38 | 0 | 0.0 | 0.0 | 0.00 | 0.00 | 0.00 | 81 | 1014.7 |
| 20260504031557 | 38 | 0 | 0.0 | 0.0 | 0.00 | 0.00 | 0.00 | 81 | 1014.6 |
| 20260504031041 | 38 | 0 | 0.0 | 0.0 | 0.00 | 0.00 | 0.00 | 81 | 1014.6 |
| 20260504030540 | 39 | 0 | 0.0 | 0.0 | 0.00 | 0.00 | 0.00 | 80 | 1014.6 |
| 20260504030051 | 39 | 0 | 0.0 | 0.0 | 0.00 | 0.00 | 0.00 | 80 | 1014.4 |
| 20260504025542 | 39 | 0 | 0.0 | 2.0 | 0.00 | 0.00 | 0.00 | 80 | 1014.4 |
| 20260504025039 | 40 | 0 | 0.0 | 2.0 | 0.00 | 0.00 | 0.00 | 80 | 1014.4 |
| 20260504024550 | 40 | 0 | 0.0 | 2.0 | 0.00 | 0.00 | 0.00 | 79 | 1014.5 |
| 20260504024040 | 40 | 0 | 1.0 | 3.0 | 0.00 | 0.00 | 0.00 | 79 | 1014.5 |
| 20260504023539 | 40 | 265 | 0.0 | 3.0 | 0.00 | 0.00 | 0.00 | 78 | 1014.4 |
| 20260504023045 | 40 | 0 | 2.0 | 3.0 | 0.00 | 0.00 | 0.00 | 78 | 1014.3 |
| 20260504022539 | 41 | 265 | 2.0 | 3.0 | 0.00 | 0.00 | 0.00 | 76 | 1014.3 |
| 20260504022038 | 42 | 0 | 0.0 | 0.0 | 0.00 | 0.00 | 0.00 | 77 | 1014.4 |
| 20260504021545 | 42 | 0 | 0.0 | 0.0 | 0.00 | 0.00 | 0.00 | 77 | 1014.4 |
| 20260504021041 | 42 | 0 | 0.0 | 2.0 | 0.00 | 0.00 | 0.00 | 77 | 1014.4 |
| 20260504020538 | 42 | 0 | 0.0 | 2.0 | 0.00 | 0.00 | 0.00 | 76 | 1014.3 |
| 20260504020046 | 42 | 264 | 1.0 | 2.0 | 0.00 | 0.00 | 0.00 | 76 | 1014.3 |
| 20260504015538 | 42 | 0 | 0.0 | 3.0 | 0.00 | 0.00 | 0.00 | 75 | 1014.2 |
| 20260504015041 | 42 | 264 | 1.0 | 4.0 | 0.00 | 0.00 | 0.00 | 75 | 1014.2 |
| 20260504014557 | 42 | 265 | 2.0 | 4.0 | 0.00 | 0.00 | 0.00 | 75 | 1014.2 |
| 20260504014044 | 43 | 263 | 2.0 | 4.0 | 0.00 | 0.00 | 0.00 | 75 | 1014.2 |
| 20260504013542 | 43 | 259 | 1.0 | 3.0 | 0.00 | 0.00 | 0.00 | 76 | 1014.2 |
| 20260504013048 | 43 | 0 | 0.0 | 2.0 | 0.00 | 0.00 | 0.00 | 75 | 1014.1 |
| 20260504012543 | 43 | 0 | 0.0 | 4.0 | 0.00 | 0.00 | 0.00 | 74 | 1014.2 |
| 20260504012041 | 43 | 259 | 1.0 | 4.0 | 0.00 | 0.00 | 0.00 | 74 | 1014.1 |
| 20260504011549 | 43 | 259 | 3.0 | 4.0 | 0.00 | 0.00 | 0.00 | 72 | 1014.0 |
| 20260504011037 | 44 | 259 | 2.0 | 4.0 | 0.00 | 0.00 | 0.00 | 72 | 1014.0 |
| 20260504010541 | 44 | 259 | 1.0 | 3.0 | 0.00 | 0.00 | 0.00 | 72 | 1014.0 |
| 20260504010057 | 44 | 259 | 1.0 | 3.0 | 0.00 | 0.00 | 0.00 | 71 | 1014.0 |
| 20260504005542 | 45 | 259 | 2.0 | 4.0 | 0.00 | 0.00 | 0.00 | 69 | 1014.1 |
| 20260504005042 | 46 | 259 | 1.0 | 4.0 | 0.00 | 0.00 | 0.00 | 67 | 1014.0 |
| 20260504004545 | 46 | 259 | 1.0 | 4.0 | 0.00 | 0.00 | 0.00 | 65 | 1013.9 |
| 20260504004044 | 47 | 259 | 0.0 | 2.0 | 0.00 | 0.00 | 0.00 | 64 | 1013.9 |
| 20260504003538 | 47 | 0 | 0.0 | 3.0 | 0.00 | 0.00 | 0.00 | 64 | 1013.8 |
| 20260504003050 | 48 | 0 | 0.0 | 3.0 | 0.00 | 0.00 | 0.00 | 60 | 1013.8 |
| 20260504002538 | 49 | 0 | 0.0 | 0.0 | 0.00 | 0.00 | 0.00 | 59 | 1013.7 |
| 20260504002038 | 50 | 0 | 0.0 | 0.0 | 0.00 | 0.00 | 0.00 | 56 | 1013.7 |
| 20260504001559 | 51 | 0 | 0.0 | 0.0 | 0.00 | 0.00 | 0.00 | 56 | 1013.7 |
| 20260504001040 | 52 | 0 | 0.0 | 0.0 | 0.00 | 0.00 | 0.00 | 53 | 1013.7 |
| 20260504000540 | 53 | 0 | 0.0 | 0.0 | 0.00 | 0.00 | 0.00 | 49 | 1013.5 |
| 20260504000056 | 54 | 0 | 0.0 | 3.0 | 0.00 | 0.00 | 0.00 | 48 | 1013.5 |
| 20260503235542 | 55 | 0 | 0.0 | 3.0 | 0.00 | 0.00 | 0.00 | 46 | 1013.5 |
| 20260503235041 | 56 | 258 | 0.0 | 4.0 | 0.00 | 0.00 | 0.00 | 42 | 1013.5 |
| 20260503234550 | 57 | 257 | 0.0 | 7.0 | 0.00 | 0.00 | 0.00 | 41 | 1013.5 |
| 20260503234038 | 57 | 240 | 2.0 | 8.0 | 0.00 | 0.00 | 0.00 | 40 | 1013.4 |
| 20260503233541 | 57 | 267 | 1.0 | 9.0 | 0.00 | 0.00 | 0.00 | 39 | 1013.3 |
| 20260503233101 | 58 | 258 | 4.0 | 11.0 | 0.00 | 0.00 | 0.00 | 38 | 1013.4 |
| 20260503232540 | 58 | 235 | 5.0 | 13.0 | 0.00 | 0.00 | 0.00 | 39 | 1013.4 |
| 20260503232037 | 58 | 281 | 7.0 | 13.0 | 0.00 | 0.00 | 0.00 | 37 | 1013.2 |
| 20260503231552 | 58 | 296 | 5.0 | 13.0 | 0.00 | 0.00 | 0.00 | 37 | 1013.1 |
| 20260503231042 | 59 | 262 | 5.0 | 12.0 | 0.00 | 0.00 | 0.00 | 37 | 1013.1 |
| 20260503230539 | 59 | 246 | 2.0 | 9.0 | 0.00 | 0.00 | 0.00 | 38 | 1013.0 |
| 20260503230053 | 59 | 294 | 0.0 | 12.0 | 0.00 | 0.00 | 0.00 | 38 | 1013.0 |
| 20260503225537 | 59 | 265 | 5.0 | 13.0 | 0.00 | 0.00 | 0.00 | 37 | 1013.1 |
| 20260503225041 | 59 | 252 | 7.0 | 15.0 | 0.00 | 0.00 | 0.00 | 37 | 1013.1 |
| 20260503224550 | 59 | 281 | 8.0 | 15.0 | 0.00 | 0.00 | 0.00 | 38 | 1013.1 |
| 20260503224042 | 59 | 302 | 6.0 | 14.0 | 0.00 | 0.00 | 0.00 | 39 | 1013.0 |
| 20260503223540 | 59 | 294 | 8.0 | 14.0 | 0.00 | 0.00 | 0.00 | 39 | 1013.1 |
| 20260503223047 | 60 | 281 | 6.0 | 12.0 | 0.00 | 0.00 | 0.00 | 37 | 1013.3 |
| 20260503222541 | 60 | 259 | 4.0 | 15.0 | 0.00 | 0.00 | 0.00 | 37 | 1013.2 |
| 20260503222038 | 59 | 236 | 5.0 | 15.0 | 0.00 | 0.00 | 0.00 | 38 | 1013.2 |
| 20260503221557 | 59 | 246 | 6.0 | 14.0 | 0.00 | 0.00 | 0.00 | 39 | 1013.1 |
| 20260503221038 | 59 | 271 | 8.0 | 15.0 | 0.00 | 0.00 | 0.00 | 42 | 1013.3 |
| 20260503220541 | 59 | 295 | 8.0 | 15.0 | 0.00 | 0.00 | 0.00 | 39 | 1013.3 |
| 20260503220057 | 59 | 252 | 9.0 | 18.0 | 0.00 | 0.00 | 0.00 | 40 | 1013.3 |
| 20260503215537 | 58 | 271 | 8.0 | 18.0 | 0.00 | 0.00 | 0.00 | 40 | 1013.2 |
| 20260503215040 | 58 | 290 | 9.0 | 14.0 | 0.00 | 0.00 | 0.00 | 39 | 1013.2 |
| 20260503214554 | 59 | 240 | 4.0 | 16.0 | 0.00 | 0.00 | 0.00 | 37 | 1013.3 |
| 20260503214040 | 59 | 259 | 9.0 | 16.0 | 0.00 | 0.00 | 0.00 | 37 | 1013.3 |
| 20260503213539 | 59 | 281 | 7.0 | 13.0 | 0.00 | 0.00 | 0.00 | 40 | 1013.2 |
| 20260503213054 | 59 | 269 | 7.0 | 21.0 | 0.00 | 0.00 | 0.00 | 39 | 1013.3 |
| 20260503212537 | 59 | 267 | 8.0 | 24.0 | 0.00 | 0.00 | 0.00 | 39 | 1013.2 |
| 20260503212042 | 59 | 261 | 11.0 | 24.0 | 0.00 | 0.00 | 0.00 | 37 | 1013.2 |
| 20260503211550 | 59 | 279 | 12.0 | 24.0 | 0.00 | 0.00 | 0.00 | 38 | 1013.1 |
| 20260503211040 | 59 | 303 | 6.0 | 19.0 | 0.00 | 0.00 | 0.00 | 40 | 1013.2 |
| 20260503210540 | 59 | 288 | 9.0 | 19.0 | 0.00 | 0.00 | 0.00 | 40 | 1013.3 |
| 20260503210056 | 59 | 277 | 7.0 | 13.0 | 0.00 | 0.00 | 0.00 | 38 | 1013.1 |
| 20260503205541 | 59 | 273 | 5.0 | 13.0 | 0.00 | 0.00 | 0.00 | 40 | 1013.1 |
| 20260503205038 | 59 | 294 | 7.0 | 13.0 | 0.00 | 0.00 | 0.00 | 39 | 1013.3 |
| 20260503204606 | 59 | 210 | 7.0 | 15.0 | 0.00 | 0.00 | 0.00 | 39 | 1013.1 |
| 20260503204040 | 60 | 311 | 7.0 | 17.0 | 0.00 | 0.00 | 0.00 | 36 | 1013.3 |
| 20260503203541 | 59 | 246 | 5.0 | 17.0 | 0.00 | 0.00 | 0.00 | 40 | 1013.3 |
| 20260503203056 | 60 | 278 | 11.0 | 17.0 | 0.00 | 0.00 | 0.00 | 38 | 1013.3 |
| 20260503202541 | 60 | 263 | 6.0 | 23.0 | 0.00 | 0.00 | 0.00 | 38 | 1013.4 |
| 20260503202041 | 59 | 283 | 7.0 | 23.0 | 0.00 | 0.00 | 0.00 | 43 | 1013.4 |
| 20260503201545 | 59 | 286 | 13.0 | 20.0 | 0.00 | 0.00 | 0.00 | 40 | 1013.4 |
| 20260503201038 | 58 | 286 | 10.0 | 17.0 | 0.00 | 0.00 | 0.00 | 41 | 1013.4 |
| 20260503200540 | 57 | 275 | 12.0 | 20.0 | 0.00 | 0.00 | 0.00 | 42 | 1013.3 |
| 20260503200046 | 58 | 306 | 10.0 | 20.0 | 0.00 | 0.00 | 0.00 | 42 | 1013.5 |
| 20260503195540 | 57 | 288 | 10.0 | 18.0 | 0.00 | 0.00 | 0.00 | 41 | 1013.6 |
| 20260503195037 | 58 | 309 | 11.0 | 17.0 | 0.00 | 0.00 | 0.00 | 40 | 1013.6 |
| 20260503194607 | 58 | 319 | 9.0 | 16.0 | 0.00 | 0.00 | 0.00 | 43 | 1013.6 |
| 20260503194041 | 57 | 315 | 12.0 | 18.0 | 0.00 | 0.00 | 0.00 | 41 | 1013.7 |
| 20260503193542 | 58 | 276 | 7.0 | 18.0 | 0.00 | 0.00 | 0.00 | 42 | 1013.7 |
| 20260503193047 | 57 | 320 | 10.0 | 18.0 | 0.00 | 0.00 | 0.00 | 38 | 1013.9 |
| 20260503192541 | 57 | 286 | 8.0 | 19.0 | 0.00 | 0.00 | 0.00 | 42 | 1013.8 |
| 20260503192041 | 58 | 281 | 12.0 | 23.0 | 0.00 | 0.00 | 0.00 | 36 | 1014.0 |
| 20260503191600 | 58 | 314 | 14.0 | 23.0 | 0.00 | 0.00 | 0.00 | 40 | 1014.0 |
| 20260503191042 | 58 | 267 | 8.0 | 19.0 | 0.00 | 0.00 | 0.00 | 40 | 1014.0 |
| 20260503190541 | 58 | 204 | 9.0 | 19.0 | 0.00 | 0.00 | 0.00 | 40 | 1014.0 |
| 20260503190058 | 58 | 287 | 11.0 | 20.0 | 0.00 | 0.00 | 0.00 | 43 | 1014.1 |
| 20260503185537 | 58 | 252 | 11.0 | 20.0 | 0.00 | 0.00 | 0.00 | 40 | 1014.1 |
| 20260503185041 | 58 | 264 | 5.0 | 16.0 | 0.00 | 0.00 | 0.00 | 45 | 1014.1 |
| 20260503184546 | 57 | 331 | 10.0 | 16.0 | 0.00 | 0.00 | 0.00 | 39 | 1014.1 |
| 20260503184041 | 57 | 242 | 10.0 | 19.0 | 0.00 | 0.00 | 0.00 | 45 | 1014.3 |
| 20260503183542 | 57 | 272 | 11.0 | 20.0 | 0.00 | 0.00 | 0.00 | 37 | 1014.3 |
| 20260503183101 | 57 | 308 | 9.0 | 20.0 | 0.00 | 0.00 | 0.00 | 40 | 1014.4 |
| 20260503182540 | 57 | 297 | 13.0 | 20.0 | 0.00 | 0.00 | 0.00 | 42 | 1014.4 |
| 20260503182040 | 57 | 303 | 5.0 | 21.0 | 0.00 | 0.00 | 0.00 | 43 | 1014.3 |
| 20260503181550 | 56 | 238 | 9.0 | 21.0 | 0.00 | 0.00 | 0.00 | 43 | 1014.3 |
| 20260503181040 | 56 | 298 | 8.0 | 24.0 | 0.00 | 0.00 | 0.00 | 41 | 1014.5 |
| 20260503180537 | 56 | 284 | 8.0 | 24.0 | 0.00 | 0.00 | 0.00 | 43 | 1014.5 |
| 20260503180105 | 56 | 263 | 5.0 | 18.0 | 0.00 | 0.00 | 0.00 | 41 | 1014.5 |
| 20260503175537 | 56 | 183 | 7.0 | 17.0 | 0.00 | 0.00 | 0.00 | 40 | 1014.5 |
| 20260503175040 | 56 | 252 | 12.0 | 17.0 | 0.00 | 0.00 | 0.00 | 40 | 1014.6 |
| 20260503174549 | 55 | 342 | 7.0 | 17.0 | 0.00 | 0.00 | 0.00 | 40 | 1014.5 |
| 20260503174041 | 55 | 264 | 7.0 | 20.0 | 0.00 | 0.00 | 0.00 | 43 | 1014.6 |
| 20260503173538 | 55 | 317 | 12.0 | 20.0 | 0.00 | 0.00 | 0.00 | 44 | 1014.7 |
| 20260503173134 | 55 | 317 | 9.0 | 20.0 | 0.00 | 0.00 | 0.00 | 45 | 1014.9 |
| 20260503172540 | 54 | 323 | 12.0 | 20.0 | 0.00 | 0.00 | 0.00 | 40 | 1014.8 |
| 20260503172039 | 54 | 291 | 8.0 | 14.0 | 0.00 | 0.00 | 0.00 | 41 | 1014.7 |
| 20260503171549 | 54 | 229 | 3.0 | 15.0 | 0.00 | 0.00 | 0.00 | 47 | 1014.8 |
| 20260503171045 | 54 | 267 | 9.0 | 20.0 | 0.00 | 0.00 | 0.00 | 41 | 1014.9 |
| 20260503170541 | 54 | 307 | 10.0 | 20.0 | 0.00 | 0.00 | 0.00 | 42 | 1014.9 |
| 20260503150541 | 50 | 285 | 12.0 | 22.0 | 0.00 | 0.00 | 0.00 | 46 | 1016.1 |
| 20260503131042 | 45 | 314 | 12.0 | 18.0 | 0.00 | 0.00 | 0.00 | 57 | 1016.3 |
| 20260503130542 | 45 | 294 | 10.0 | 17.0 | 0.00 | 0.00 | 0.00 | 59 | 1016.4 |
| 20260503130104 | 45 | 311 | 11.0 | 19.0 | 0.00 | 0.00 | 0.00 | 56 | 1016.4 |
| 20260503110540 | 39 | 292 | 6.0 | 10.0 | 0.00 | 0.00 | 0.00 | 67 | 1015.5 |
| 20260503081555 | 38 | 263 | 5.0 | 8.0 | 0.00 | 0.00 | 0.00 | 69 | 1013.9 |
| 20260503081040 | 38 | 270 | 5.0 | 8.0 | 0.00 | 0.00 | 0.00 | 70 | 1013.9 |
| 20260503080541 | 38 | 261 | 5.0 | 10.0 | 0.00 | 0.00 | 0.00 | 70 | 1013.9 |
| 20260503072541 | 39 | 281 | 3.0 | 7.0 | 0.00 | 0.00 | 0.00 | 69 | 1013.7 |
| 20260503072041 | 39 | 283 | 3.0 | 9.0 | 0.00 | 0.00 | 0.00 | 69 | 1013.6 |
| 20260503071550 | 39 | 288 | 5.0 | 10.0 | 0.00 | 0.00 | 0.00 | 69 | 1013.6 |
| 20260503071040 | 39 | 294 | 6.0 | 10.0 | 0.00 | 0.00 | 0.00 | 68 | 1013.5 |
| 20260503070541 | 39 | 294 | 4.0 | 10.0 | 0.00 | 0.00 | 0.00 | 68 | 1013.4 |
| 20260503055041 | 40 | 298 | 8.0 | 13.0 | 0.00 | 0.00 | 0.00 | 69 | 1013.5 |
| 20260503054550 | 40 | 309 | 8.0 | 13.0 | 0.00 | 0.00 | 0.00 | 70 | 1013.4 |
| 20260503054041 | 40 | 295 | 10.0 | 13.0 | 0.00 | 0.00 | 0.00 | 71 | 1013.5 |
| 20260503053540 | 40 | 293 | 8.0 | 13.0 | 0.00 | 0.00 | 0.00 | 71 | 1013.5 |
| 20260503053054 | 39 | 301 | 8.0 | 11.0 | 0.00 | 0.00 | 0.00 | 73 | 1013.6 |
| 20260503052539 | 39 | 317 | 6.0 | 9.0 | 0.00 | 0.00 | 0.00 | 73 | 1013.5 |
| 20260503052040 | 39 | 317 | 5.0 | 6.0 | 0.00 | 0.00 | 0.00 | 73 | 1013.4 |
| 20260503051551 | 39 | 318 | 4.0 | 9.0 | 0.00 | 0.00 | 0.00 | 74 | 1013.5 |
| 20260503051038 | 39 | 315 | 4.0 | 9.0 | 0.00 | 0.00 | 0.00 | 74 | 1013.5 |
| 20260503050539 | 39 | 321 | 4.0 | 7.0 | 0.00 | 0.00 | 0.00 | 73 | 1013.5 |
| 20260503050052 | 40 | 331 | 3.0 | 9.0 | 0.00 | 0.00 | 0.00 | 73 | 1013.4 |
| 20260503045540 | 41 | 324 | 5.0 | 9.0 | 0.00 | 0.00 | 0.00 | 71 | 1013.6 |
| 20260503045040 | 41 | 314 | 5.0 | 9.0 | 0.00 | 0.00 | 0.00 | 70 | 1013.8 |
| 20260503044555 | 42 | 275 | 3.0 | 9.0 | 0.00 | 0.00 | 0.00 | 69 | 1013.8 |
| 20260503044039 | 42 | 273 | 5.0 | 13.0 | 0.00 | 0.00 | 0.00 | 69 | 1013.8 |
| 20260503043539 | 42 | 261 | 6.0 | 13.0 | 0.00 | 0.00 | 0.00 | 69 | 1013.9 |
| 20260503043054 | 42 | 245 | 4.0 | 8.0 | 0.00 | 0.00 | 0.00 | 69 | 1013.8 |
| 20260503042539 | 42 | 290 | 3.0 | 9.0 | 0.00 | 0.00 | 0.00 | 69 | 1013.8 |